Theta_e
326 326 326 323 321 319 319 318 319 319 320 321 324 327 330 330 327 320 311 317 319 328 325 316 314 313 313 310 313 309 301 297 298 297 300 305 304 308 308 306 308 310 309 313 317
325 325 326 325 322 320 319 318 319 319 320 321 324 326 327 328 320 315 322 328 329 328 317 311 308 310 306 307 308 307 301 300 303 303 302 305 305 306 306 306 307 309 312 314 320
324 324 325 325 323 320 318 318 319 319 320 321 323 324 325 325 313 313 328 332 331 330 319 316 313 309 304 307 305 305 300 304 305 306 307 306 305 308 305 304 307 308 309 311 317
324 324 325 325 324 321 318 317 318 319 320 320 321 323 324 320 298 311 326 327 333 325 319 313 308 303 301 300 305 301 305 306 307 309 308 306 308 307 305 308 311 309 310 310 311
320 323 323 324 324 322 319 317 318 318 319 318 320 321 318 309 309 316 320 318 322 320 316 312 306 302 298 300 302 301 302 305 307 307 307 308 307 307 308 310 312 314 313 311 311
317 320 321 322 324 323 321 319 318 318 319 318 320 318 308 299 309 310 312 312 319 320 316 313 309 307 302 301 300 301 302 302 304 304 306 304 305 306 308 312 311 310 310 310 310
314 317 318 321 322 323 320 319 318 318 319 318 319 313 304 300 309 309 310 308 311 316 313 314 312 307 306 301 304 302 298 300 300 302 302 305 300 301 309 310 308 309 310 311 311
312 314 316 317 321 322 321 319 318 319 319 318 318 308 298 310 310 309 308 306 308 312 311 314 314 308 305 304 300 297 297 291 297 300 302 303 292 302 306 306 306 308 307 309 311
310 311 314 315 317 320 321 320 319 318 317 318 307 301 294 310 306 308 307 303 305 306 307 310 306 300 301 295 291 293 286 289 293 300 300 300 295 301 306 304 304 305 307 307 308
309 310 312 313 315 319 320 319 318 314 311 310 308 298 300 298 305 306 308 305 302 302 301 301 299 294 295 292 282 285 287 289 289 295 296 295 294 299 303 303 304 304 305 305 306
308 309 311 312 315 317 317 310 302 300 303 296 296 297 300 304 307 304 306 303 301 298 292 296 291 287 290 292 291 291 289 288 291 295 293 292 293 296 299 299 299 301 303 304 306
308 309 310 310 312 315 313 302 299 300 292 301 300 300 303 304 297 301 305 297 295 290 292 291 287 292 293 292 291 290 288 288 291 294 293 291 290 294 296 297 299 300 301 304 306
307 308 309 309 311 311 307 303 304 302 290 293 299 298 299 302 297 298 301 297 292 289 290 287 289 293 291 290 289 289 287 287 287 290 292 289 286 289 292 295 298 300 301 303 303
307 306 307 308 305 309 304 307 305 300 278 285 291 296 299 300 294 303 303 298 293 289 291 289 293 291 288 287 289 284 290 289 288 286 280 288 278 286 291 292 294 296 298 300 302
305 306 307 308 303 304 306 307 302 295 268 288 292 303 300 295 295 296 303 298 289 289 289 286 287 287 287 288 290 286 291 289 288 286 284 285 281 284 288 288 292 295 297 299 302
305 307 307 305 305 305 309 307 299 279 268 286 293 294 292 294 296 297 298 302 298 291 292 288 292 290 289 291 291 292 289 288 287 286 279 283 282 282 286 288 291 294 296 299 303
306 307 305 306 298 309 309 300 282 272 287 286 288 293 292 290 292 294 292 290 288 283 283 288 289 292 292 287 290 289 286 278 277 277 276 284 282 284 289 292 293 294 296 298 301
305 307 306 306 307 306 304 289 276 282 283 291 290 292 288 290 291 292 290 287 292 289 284 276 276 288 292 289 285 286 285 279 273 274 277 282 279 284 291 294 295 296 297 297 300
307 301 302 304 307 303 294 282 280 283 289 288 289 286 286 289 290 290 289 288 291 291 284 280 280 288 290 291 290 286 282 288 281 282 278 280 283 288 291 293 295 296 298 298 298
300 300 300 306 307 300 288 284 283 291 291 290 284 287 283 286 286 288 287 288 289 293 294 287 279 286 289 291 291 289 290 281 282 274 273 277 279 281 286 289 294 294 297 299 298
298 293 302 307 304 294 284 283 287 293 293 289 287 285 285 285 286 286 284 286 290 289 293 290 285 282 289 286 284 286 284 285 284 282 275 274 278 286 287 292 293 295 298 299 298
294 288 302 306 288 287 286 287 294 291 295 294 292 290 287 287 286 286 283 285 291 291 287 289 286 280 281 288 291 289 286 285 279 276 279 277 278 290 292 295 294 295 297 299 299
291 294 304 301 285 286 289 290 293 292 293 293 291 293 292 287 284 285 285 291 292 290 287 290 285 277 278 285 288 286 287 287 286 284 278 275 278 290 290 293 295 297 297 299 298
293 288 294 297 295 288 287 287 288 295 294 295 293 293 291 289 289 285 286 291 292 292 296 294 287 280 279 283 286 284 285 287 285 280 280 280 282 287 289 292 294 295 298 299 298
296 290 292 286 289 290 290 289 288 288 293 295 292 293 290 288 289 287 288 289 292 294 294 291 283 285 286 287 286 286 286 286 284 284 280 283 283 287 290 292 294 296 297 298 298
290 292 292 290 293 290 288 286 287 290 292 291 289 293 294 290 290 286 288 288 288 291 292 293 285 286 284 288 287 284 287 287 287 286 285 285 285 292 293 294 295 296 298 298 298
296 298 294 292 290 287 285 290 289 293 294 296 294 294 293 294 297 297 298 297 294 291 290 289 286 284 281 288 287 284 286 287 288 289 287 283 288 293 292 293 295 297 296 297 299
Wind_Speed
16 16 15 12 10 8 9 8 10 10 10 10 14 16 7 10 8 5 5 8 5 9 1 1 4 2 3 3 2 3 2 7 8 8 6 2 1 2 1 3 3 2 2 2 2
17 17 17 13 11 9 8 7 8 9 10 9 11 11 4 8 4 9 8 10 7 4 3 2 2 1 2 2 1 3 4 9 6 6 4 2 2 1 2 4 5 6 3 3 2
20 16 15 16 12 11 8 7 8 7 9 7 8 8 3 2 3 4 8 18 13 10 4 3 3 1 2 2 3 3 7 4 3 4 2 2 4 3 3 7 6 6 4 8 1
27 18 17 16 14 12 10 7 7 6 6 6 6 5 3 1 4 1 6 4 17 7 7 4 3 3 2 3 2 3 6 5 2 2 2 4 1 5 6 8 5 4 4 5 10
24 24 17 16 17 14 11 8 7 6 5 4 5 3 2 3 4 1 5 6 1 10 9 6 3 4 3 2 1 3 2 3 4 5 5 6 12 13 12 10 9 11 9 11 11
25 22 24 16 16 14 12 10 8 7 4 2 3 3 4 6 2 5 4 4 4 10 6 4 4 4 2 2 3 1 3 5 6 8 6 12 17 6 13 12 14 10 12 10 10
25 25 22 19 14 17 13 12 10 9 6 3 4 2 2 9 4 2 6 2 2 4 5 3 4 3 4 1 1 2 5 8 8 7 8 4 13 15 20 15 15 14 13 12 12
26 25 19 23 14 15 16 14 11 8 8 6 5 2 6 1 2 2 1 2 3 2 4 7 4 3 2 1 4 2 2 3 3 4 7 9 12 8 2 11 17 18 12 12 14
24 24 21 20 19 12 16 15 10 7 3 8 4 5 7 1 2 4 4 5 5 3 3 6 4 4 2 2 2 3 4 5 6 4 2 12 6 5 9 3 10 11 12 11 13
26 25 22 19 17 14 19 14 13 9 5 4 2 1 3 2 3 4 0 6 4 5 3 3 3 3 3 5 5 4 4 5 5 2 3 11 17 15 13 13 16 13 11 10 11
25 25 20 20 17 17 17 10 6 3 4 8 5 2 2 2 4 3 3 5 4 4 5 2 5 10 12 8 4 1 4 7 5 10 12 13 21 17 16 12 15 15 15 14 12
24 22 20 20 21 21 16 7 9 10 6 10 3 4 3 1 4 2 6 5 5 5 5 3 10 9 2 4 8 10 15 17 10 7 10 12 27 17 17 20 18 18 16 16 13
22 21 21 20 24 11 16 6 10 10 5 2 7 5 4 3 2 8 8 4 4 6 7 5 4 3 10 7 9 13 16 15 18 9 13 15 28 19 18 23 20 21 21 21 19
21 20 23 21 11 4 13 9 7 6 6 4 4 6 7 5 4 6 8 6 2 10 7 10 9 6 4 6 8 15 8 11 13 7 8 2 14 7 6 10 9 12 16 17 17
23 26 26 17 9 4 7 9 9 6 3 4 5 2 6 11 5 0 3 3 8 6 6 4 5 3 11 8 7 6 5 7 9 9 8 13 9 6 2 4 9 10 14 14 16
26 28 19 7 6 2 6 9 6 7 7 6 5 8 8 4 4 4 8 0 3 5 6 5 1 4 7 5 11 1 3 6 2 6 12 10 11 17 7 8 4 7 12 10 13
31 31 19 7 5 3 13 8 5 4 1 8 7 9 9 7 5 6 9 9 5 4 4 3 14 5 4 3 2 6 3 3 6 8 9 8 12 20 11 19 16 17 14 9 9
28 23 11 7 5 3 11 4 5 6 3 5 10 10 5 9 5 7 11 7 10 3 2 4 5 10 8 14 7 10 10 6 5 6 5 3 9 9 11 14 16 10 12 10 8
20 2 4 5 8 1 9 3 7 6 8 10 11 5 3 3 2 4 7 6 9 13 6 3 5 2 6 5 9 4 12 10 6 11 6 5 8 9 13 12 5 7 9 12 11
6 1 1 10 9 2 3 7 3 4 11 9 6 4 10 9 7 9 7 4 6 13 10 2 5 4 1 4 7 7 1 4 5 6 7 7 8 12 8 7 5 6 9 14 12
3 1 3 6 8 3 2 2 5 3 5 4 5 6 6 7 8 6 4 3 6 5 13 5 5 1 2 11 12 8 6 6 3 4 4 5 7 5 12 5 4 5 10 13 13
1 2 5 4 7 3 1 7 5 3 3 3 4 5 5 7 5 5 6 5 6 9 10 8 4 7 13 8 14 16 13 17 9 6 5 3 14 10 8 3 4 9 9 8 8
1 2 4 2 4 4 4 4 5 3 2 2 4 4 3 5 5 6 4 5 8 10 11 9 5 4 7 1 4 10 17 16 14 5 15 8 9 1 2 4 7 10 8 6 3
1 1 3 2 2 6 4 3 5 3 2 3 4 5 4 4 4 3 4 3 11 8 8 11 5 8 12 12 1 7 14 20 15 9 11 21 21 17 15 13 12 14 8 4 4
3 3 1 3 2 4 5 3 6 3 1 3 3 3 5 4 5 6 6 3 5 10 8 10 8 12 22 24 17 13 14 19 21 23 14 13 17 17 13 9 10 12 14 6 7
4 2 1 5 6 6 3 3 4 3 4 3 2 7 7 5 5 3 3 5 6 6 9 6 6 5 19 18 20 22 19 19 23 22 23 20 25 17 11 8 8 14 18 12 9
2 2 2 9 7 4 3 6 7 5 2 2 5 3 7 9 9 9 9 7 4 6 11 5 3 3 15 7 9 7 14 21 19 19 13 17 21 10 7 6 12 16 10 8 11
Wind_Direction
295 274 259 256 250 248 270 284 297 301 302 308 314 320 211 177 137 161 226 216 201 257 1 335 45 9 73 104 114 135 156 220 218 176 219 227 163 292 268 277 319 295 264 326 34
300 290 272 246 249 247 253 271 288 295 302 307 321 327 239 165 159 213 234 210 226 214 119 112 107 36 85 129 177 186 193 219 194 183 215 257 233 262 327 298 288 317 298 2 41
301 290 286 250 242 244 244 263 282 284 295 306 340 334 335 183 235 222 258 226 218 187 126 110 117 101 125 126 193 193 240 190 199 185 178 272 283 219 215 256 228 265 289 326 299
343 291 284 264 233 235 236 252 270 282 295 321 343 347 322 263 220 83 18 245 214 156 127 121 80 98 129 193 202 226 254 245 212 238 259 220 229 271 235 241 243 226 298 299 302
340 337 287 282 236 220 224 224 246 257 272 305 347 45 69 242 238 14 360 356 358 146 163 159 126 133 181 197 137 223 271 266 286 296 262 254 243 250 245 242 264 287 284 278 278
334 337 334 289 253 218 212 200 219 236 264 226 47 99 98 237 337 26 350 45 85 154 170 148 166 183 184 231 177 242 266 267 277 260 251 254 260 231 248 222 241 241 253 261 259
326 333 333 325 276 220 202 196 202 223 216 197 113 99 123 237 98 339 5 41 46 133 140 158 148 132 156 243 243 252 292 288 238 226 243 249 262 240 250 234 236 237 239 248 251
322 325 335 326 298 221 193 195 193 214 233 184 124 85 239 269 97 213 148 82 79 77 119 150 136 122 159 248 342 255 235 262 278 224 242 193 256 247 241 228 242 243 228 238 251
319 315 322 322 323 251 186 186 170 167 149 156 78 116 261 259 174 191 164 147 113 86 88 136 126 164 130 129 318 225 255 232 311 204 258 206 273 262 270 277 252 250 245 241 253
321 314 317 323 308 314 187 158 132 100 89 75 77 275 253 204 152 118 250 127 111 115 85 130 106 159 182 175 224 198 224 241 215 324 346 287 276 282 272 281 283 282 269 251 250
312 308 305 324 301 311 151 122 128 129 204 190 192 236 102 106 117 63 141 92 84 89 170 164 195 213 209 207 214 326 264 259 291 298 319 278 279 275 273 260 266 268 273 269 251
313 309 308 310 306 287 169 193 182 161 185 226 168 278 276 328 112 121 142 129 141 170 146 160 236 226 188 207 228 252 265 270 276 254 273 293 285 276 266 259 252 254 253 256 255
318 329 316 311 313 295 187 208 145 115 98 241 193 192 187 144 188 178 153 137 132 153 187 194 163 116 192 204 221 242 253 266 272 299 277 287 278 268 251 250 247 246 245 244 241
319 316 311 311 294 210 183 180 165 98 83 226 181 238 163 123 259 173 176 139 146 193 202 256 251 253 168 204 197 252 201 237 256 266 266 167 291 260 270 265 256 256 244 242 238
318 308 302 283 303 244 153 169 140 59 70 150 153 139 152 164 154 78 182 89 152 177 149 225 191 171 220 222 171 246 186 210 230 241 272 242 261 294 313 272 268 249 240 234 233
310 308 298 264 219 199 178 149 55 63 238 151 129 158 148 215 121 118 171 352 139 166 237 227 191 166 195 199 193 126 308 276 226 230 244 227 211 275 248 253 279 277 261 246 238
311 295 284 225 202 248 181 118 116 151 156 150 164 159 167 156 173 145 173 186 176 171 214 283 227 177 159 166 217 174 189 251 223 212 243 193 197 251 296 293 257 276 276 263 257
307 289 239 187 170 20 154 138 121 162 179 148 147 132 166 139 203 158 158 198 217 127 167 184 312 193 174 212 184 189 185 220 245 232 239 174 227 251 228 254 248 272 287 286 261
333 76 147 152 140 136 165 133 174 180 146 134 117 138 168 158 137 161 198 205 202 177 198 168 263 220 206 184 178 180 211 236 263 263 264 236 266 275 257 267 305 302 306 300 252
323 39 132 144 131 202 212 127 137 107 120 140 121 166 173 180 160 185 183 218 210 180 194 160 275 222 241 144 237 197 37 175 194 240 239 237 249 241 289 227 307 314 332 335 296
315 283 128 181 124 163 215 105 105 132 119 124 113 133 153 162 173 189 209 272 199 183 180 137 205 222 138 208 191 192 209 213 272 225 238 259 246 229 233 190 262 310 348 340 321
219 195 161 150 119 121 173 146 113 129 25 104 102 103 120 139 160 198 223 237 179 141 178 197 213 240 228 216 209 211 212 218 228 221 230 222 257 302 254 218 309 337 340 337 327
298 328 125 95 120 104 271 69 90 122 152 119 96 102 127 146 164 201 197 233 165 165 171 161 219 291 304 313 207 222 218 217 229 254 240 247 250 344 48 25 317 319 343 323 330
204 102 81 213 326 136 160 84 102 63 120 103 104 86 96 148 226 159 226 263 194 192 178 169 212 211 252 256 211 227 220 217 214 229 246 236 266 259 290 314 333 318 340 291 227
197 77 118 139 232 152 71 124 111 120 98 172 97 153 162 184 187 220 211 223 169 201 192 179 253 241 255 266 258 245 226 209 216 233 220 270 242 263 256 276 288 314 301 273 204
12 36 301 142 150 115 37 188 147 137 137 157 165 178 168 212 211 200 197 187 204 186 182 200 265 258 274 264 253 254 231 223 216 227 240 257 276 277 279 292 318 284 286 275 194
326 272 273 155 159 140 196 159 192 135 197 134 192 166 211 230 231 248 244 259 232 175 193 211 235 261 279 296 278 263 239 225 226 222 226 231 244 293 284 316 275 274 287 231 171